• In Austria
  • List of Countries
  • For 7 days
  • Water Temperature
  • Satellite Maps
  • Weather Map
  • News
  • Weather Widgets
  • user-avatar
    Login

    Hourly Weather Keminmaa

    Today, 16 October, Tuesday

    Time Temperature Precipitation Wind Pressure Humidity
    00:00 +8°C° 0.4 mm 1 mps 756 mmHg 90%
    01:00 +8°C° 0.4 mm 1 mps 756 mmHg 91%
    02:00 +8°C° 0.4 mm 1 mps 756 mmHg 91%
    03:00 +7°C° 0.3 mm 2 mps 756 mmHg 92%
    04:00 +7°C° 0.3 mm 2 mps 756 mmHg 92%
    05:00 +6°C° 0.3 mm 2 mps 756 mmHg 92%
    06:00 +6°C° 0 mm 2 mps 756 mmHg 93%
    07:00 +5°C° 0 mm 2 mps 757 mmHg 93%
    08:00 +5°C° 0 mm 2 mps 757 mmHg 94%
    09:00 +4°C° 0 mm 3 mps 757 mmHg 87%
    10:00 +5°C° 0 mm 3 mps 758 mmHg 81%
    11:00 +7°C° 0 mm 3 mps 758 mmHg 75%
    12:00 +8°C° 0 mm 3 mps 759 mmHg 72%
    13:00 +8°C° 0 mm 3 mps 759 mmHg 69%
    14:00 +8°C° 0 mm 4 mps 759 mmHg 65%
    15:00 +8°C° 0 mm 3 mps 760 mmHg 70%
    16:00 +7°C° 0 mm 3 mps 760 mmHg 74%
    17:00 +5°C° 0 mm 3 mps 761 mmHg 78%
    18:00 +4°C° 0 mm 3 mps 761 mmHg 80%
    19:00 +4°C° 0 mm 3 mps 761 mmHg 81%
    20:00 +4°C° 0 mm 2 mps 762 mmHg 83%
    21:00 +4°C° 0 mm 2 mps 762 mmHg 84%
    22:00 +4°C° 0 mm 2 mps 762 mmHg 84%
    23:00 +4°C° 0 mm 1 mps 762 mmHg 85%

    Tomorrow, 17 October, Wednesday

    Time Temperature Precipitation Wind Pressure Humidity
    00:00 +4°C° 0 mm 2 mps 762 mmHg 85%
    01:00 +4°C° 0 mm 2 mps 763 mmHg 85%
    02:00 +4°C° 0 mm 2 mps 763 mmHg 85%
    03:00 +4°C° 0 mm 2 mps 763 mmHg 86%
    04:00 +3°C° 0 mm 3 mps 762 mmHg 87%
    05:00 +3°C° 0 mm 3 mps 762 mmHg 88%
    06:00 +4°C° 0 mm 3 mps 762 mmHg 89%
    07:00 +4°C° 0 mm 4 mps 762 mmHg 90%
    08:00 +4°C° 0 mm 4 mps 761 mmHg 91%
    09:00 +5°C° 0 mm 4 mps 761 mmHg 88%
    10:00 +5°C° 0 mm 5 mps 760 mmHg 84%
    11:00 +6°C° 0 mm 5 mps 760 mmHg 80%
    12:00 +6°C° 0.1 mm 5 mps 759 mmHg 81%
    13:00 +6°C° 0.1 mm 5 mps 759 mmHg 83%
    14:00 +6°C° 0.1 mm 5 mps 758 mmHg 84%
    15:00 +6°C° 0.2 mm 5 mps 758 mmHg 87%
    16:00 +6°C° 0.2 mm 5 mps 757 mmHg 91%
    17:00 +6°C° 0.2 mm 4 mps 757 mmHg 95%
    18:00 +6°C° 0.1 mm 4 mps 757 mmHg 96%
    19:00 +7°C° 0.1 mm 4 mps 756 mmHg 97%
    20:00 +7°C° 0.1 mm 4 mps 756 mmHg 98%
    21:00 +8°C° 0.2 mm 3 mps 756 mmHg 98%
    22:00 +8°C° 0.2 mm 3 mps 756 mmHg 98%
    23:00 +8°C° 0.2 mm 2 mps 756 mmHg 98%

    Day after tomorrow, 18 October, Thursday

    Time Temperature Precipitation Wind Pressure Humidity
    00:00 +7°C° 0 mm 3 mps 756 mmHg 97%
    01:00 +7°C° 0 mm 3 mps 756 mmHg 97%
    02:00 +7°C° 0 mm 3 mps 756 mmHg 97%
    03:00 +7°C° 0 mm 3 mps 756 mmHg 96%
    04:00 +6°C° 0 mm 2 mps 756 mmHg 95%
    05:00 +6°C° 0 mm 2 mps 756 mmHg 94%
    06:00 +6°C° 0 mm 2 mps 756 mmHg 93%
    07:00 +6°C° 0 mm 2 mps 756 mmHg 92%
    08:00 +6°C° 0 mm 2 mps 756 mmHg 91%
    09:00 +5°C° 0.2 mm 3 mps 756 mmHg 89%
    10:00 +5°C° 0.2 mm 3 mps 756 mmHg 87%
    11:00 +6°C° 0.2 mm 4 mps 756 mmHg 85%
    12:00 +6°C° 0.2 mm 4 mps 756 mmHg 83%
    13:00 +6°C° 0.2 mm 4 mps 755 mmHg 81%
    14:00 +7°C° 0.2 mm 4 mps 755 mmHg 79%
    15:00 +6°C° 0 mm 4 mps 755 mmHg 80%
    16:00 +5°C° 0 mm 5 mps 755 mmHg 80%
    17:00 +5°C° 0 mm 5 mps 755 mmHg 81%
    18:00 +5°C° 0 mm 5 mps 755 mmHg 79%
    19:00 +4°C° 0 mm 6 mps 755 mmHg 77%
    20:00 +4°C° 0 mm 7 mps 755 mmHg 75%
    21:00 +4°C° 0 mm 7 mps 755 mmHg 75%
    22:00 +4°C° 0 mm 7 mps 755 mmHg 75%
    23:00 +4°C° 0 mm 7 mps 755 mmHg 75%

    19 October, Friday

    Time Temperature Precipitation Wind Pressure Humidity
    00:00 +4°C° 0 mm 7 mps 754 mmHg 73%
    01:00 +4°C° 0 mm 7 mps 754 mmHg 71%
    02:00 +5°C° 0 mm 8 mps 754 mmHg 68%
    03:00 +5°C° 0 mm 8 mps 755 mmHg 68%
    04:00 +5°C° 0 mm 8 mps 755 mmHg 67%
    05:00 +5°C° 0 mm 8 mps 755 mmHg 67%
    06:00 +5°C° 0 mm 7 mps 755 mmHg 68%
    07:00 +5°C° 0 mm 7 mps 756 mmHg 69%
    08:00 +5°C° 0 mm 7 mps 756 mmHg 70%
    09:00 +5°C° 0 mm 7 mps 757 mmHg 68%
    10:00 +7°C° 0 mm 6 mps 757 mmHg 66%
    11:00 +7°C° 0 mm 6 mps 757 mmHg 63%
    12:00 +8°C° 0 mm 6 mps 758 mmHg 62%
    13:00 +8°C° 0 mm 5 mps 758 mmHg 61%
    14:00 +8°C° 0 mm 4 mps 758 mmHg 60%
    15:00 +7°C° 0 mm 4 mps 758 mmHg 64%
    16:00 +6°C° 0 mm 4 mps 759 mmHg 69%
    17:00 +5°C° 0 mm 3 mps 759 mmHg 73%
    18:00 +4°C° 0 mm 3 mps 759 mmHg 75%
    19:00 +4°C° 0 mm 3 mps 759 mmHg 76%
    20:00 +3°C° 0 mm 3 mps 759 mmHg 77%
    21:00 +3°C° 0 mm 3 mps 759 mmHg 78%
    22:00 +4°C° 0 mm 2 mps 759 mmHg 78%
    23:00 +4°C° 0 mm 2 mps 759 mmHg 79%

    20 October, Saturday

    Time Temperature Precipitation Wind Pressure Humidity
    00:00 +4°C° 0 mm 2 mps 759 mmHg 79%
    01:00 +4°C° 0 mm 2 mps 759 mmHg 80%
    02:00 +4°C° 0 mm 2 mps 759 mmHg 81%
    03:00 +4°C° 0 mm 2 mps 759 mmHg 85%
    04:00 +3°C° 0 mm 2 mps 759 mmHg 89%
    05:00 +3°C° 0 mm 2 mps 758 mmHg 94%
    06:00 +2°C° 0 mm 3 mps 758 mmHg 94%
    07:00 +2°C° 0 mm 3 mps 758 mmHg 94%
    08:00 +2°C° 0 mm 3 mps 758 mmHg 95%
    09:00 +3°C° 0 mm 3 mps 758 mmHg 91%
    10:00 +4°C° 0 mm 3 mps 758 mmHg 87%
    11:00 +5°C° 0 mm 3 mps 758 mmHg 83%
    12:00 +5°C° 0 mm 3 mps 757 mmHg 81%
    13:00 +5°C° 0 mm 4 mps 757 mmHg 80%
    14:00 +6°C° 0 mm 4 mps 757 mmHg 78%
    15:00 +5°C° 0 mm 4 mps 757 mmHg 82%
    16:00 +4°C° 0 mm 4 mps 757 mmHg 85%
    17:00 +3°C° 0 mm 3 mps 757 mmHg 89%
    18:00 +3°C° 0 mm 3 mps 757 mmHg 90%
    19:00 +3°C° 0 mm 3 mps 757 mmHg 90%
    20:00 +2°C° 0 mm 3 mps 756 mmHg 91%
    21:00 +2°C° 0 mm 3 mps 756 mmHg 91%
    22:00 +2°C° 0 mm 3 mps 756 mmHg 91%
    23:00 +2°C° 0 mm 3 mps 755 mmHg 92%

    21 October, Sunday

    Time Temperature Precipitation Wind Pressure Humidity
    00:00 +1°C° 0 mm 4 mps 755 mmHg 90%
    01:00 +2°C° 0 mm 5 mps 754 mmHg 89%
    02:00 +3°C° 0 mm 6 mps 753 mmHg 87%
    03:00 +3°C° 0.5 mm 7 mps 751 mmHg 88%
    04:00 +4°C° 0.5 mm 8 mps 750 mmHg 88%
    05:00 +3°C° 0.5 mm 9 mps 748 mmHg 89%
    06:00 +5°C° 1.4 mm 9 mps 747 mmHg 90%
    07:00 +5°C° 1.4 mm 9 mps 746 mmHg 90%
    08:00 +5°C° 1.4 mm 8 mps 745 mmHg 91%
    09:00 +6°C° 0.6 mm 8 mps 745 mmHg 84%
    10:00 +6°C° 0.6 mm 8 mps 745 mmHg 77%
    11:00 +7°C° 0.6 mm 8 mps 745 mmHg 70%
    12:00 +8°C° 0 mm 7 mps 746 mmHg 68%
    13:00 +8°C° 0 mm 7 mps 746 mmHg 65%
    14:00 +7°C° 0 mm 6 mps 746 mmHg 63%
    15:00 +7°C° 0 mm 6 mps 747 mmHg 66%
    16:00 +5°C° 0 mm 6 mps 747 mmHg 69%
    17:00 +4°C° 0 mm 6 mps 747 mmHg 71%
    18:00 +4°C° 0 mm 6 mps 747 mmHg 71%
    19:00 +4°C° 0 mm 6 mps 746 mmHg 71%
    20:00 +4°C° 0 mm 7 mps 746 mmHg 71%
    21:00 +4°C° 0 mm 6 mps 746 mmHg 73%
    22:00 +5°C° 0 mm 5 mps 745 mmHg 75%
    23:00 +5°C° 0 mm 5 mps 745 mmHg 77%
    Show more